User: anonymous   Login
Location: Brno
(49.2000°N, 16.6330°E)
Time: 23:00:26
(UTC+01:00)
Language:

RESURS DK-1 - Orbit

View from above orbital plane
View from above orbital plane
View from above satellite
View from above satellite

Ground track
Ground track

The orbit data is extracted from the following two-line orbital elements,

1 29228U 06021A   14356.38968691  .00001777  00000-0  14601-3 0  5400
2 29228 069.9396 246.3053 0007881 279.8553 080.1719 15.01104552471814
Epoch (UTC): 22 December 2014 09:21:08
Eccentricity: 0.0007881
inclination: 69.9396°
perigee height: 558 km
apogee height: 569 km
right ascension of ascending node: 246.3053°
argument of perigee: 279.8553°
revolutions per day: 15.01104552
mean anomaly at epoch: 80.1719°
orbit number at epoch: 47181

The dashed part of the orbit path shows where the satellite is in the earth's shadow,  

DLR